This demonstration page uses our WeatherBlox Daily Observations layout. Learn more.

Left ArrowRight Arrow

Hourly Observations for May 25, 2020

Temp ( °F °C ) Dew Point ( °F °C ) Humidity (%) Winds ( mph kmh ) Pressure ( in mb ) Visibility ( mi km ) Precip ( " mm )
12:54 am 00:54 Mostly Cloudy with Light Rain 64 17.8 61 16.1 90 90 ENE 5 7 29.83 1010 10 16.0934 0.001 0.001
1:54 am 01:54 Cloudy with Light Rain 65 18.3 62 16.7 90 90 VRB 3 6 29.83 1010 9 14.48406 0.001 0.001
2:11 am 02:11 Cloudy with Light Rain 65 18.3 62 16.7 90 90 W 5 7 29.84 1011 7 11.26538 0.01 0.254
2:36 am 02:36 Cloudy with Light Rain 65 18.3 62 16.7 90 90 WNW 6 9 29.83 1010 6 9.65604 0.04 1.016
2:54 am 02:54 Cloudy with Light Rain 64 17.8 62 16.7 93 93 WNW 5 7 29.83 1010 6 9.65604 0.05 1.27
3:34 am 03:34 Cloudy with Rain 64 17.8 62 16.7 93 93 NW 3 6 29.87 1011 3 4.82802 0.07 1.778
3:47 am 03:47 Cloudy with Nearby Thunderstorms 64 17.8 62 16.7 93 93 SW 3 6 29.87 1011 3 4.82802 0.1 2.54
3:54 am 03:54 Cloudy with Nearby Thunderstorms 64 17.8 62 16.7 93 93 WSW 3 6 29.86 1011 2.5 4.02335 0.12 3.048
3:57 am 03:57 Cloudy with Rain 64 17.8 62 16.7 93 93 WSW 3 6 29.87 1011 2.5 4.02335 0.01 0.254
4:07 am 04:07 Cloudy with Rain 64 17.8 62 16.7 93 93 WNW 5 7 29.87 1011 2.5 4.02335 0.05 1.27
4:14 am 04:14 Cloudy with Nearby Thunderstorms 64 17.8 62 16.7 93 93 WNW 6 9 29.87 1011 2 3.21868 0.08 2.032
4:25 am 04:25 Cloudy with Rain 64 17.8 61 16.1 90 90 WNW 3 6 29.87 1011 2.5 4.02335 0.13 3.302
4:54 am 04:54 Cloudy with Rain 63 17.2 61 16.1 93 93 N 8 13 29.85 1011 3 4.82802 0.22 5.588
5:29 am 05:29 Cloudy with Mist and Fog 63 17.2 60 15.6 90 90 NW 14 22 29.83 1010 6 9.65604 0.03 0.762
5:54 am 05:54 Cloudy with Mist and Fog 63 17.2 60 15.6 90 90 NW 12 19 29.84 1011 6 9.65604 0.03 0.762
6:32 am 06:32 Cloudy with Light Rain 63 17.2 60 15.6 90 90 NW 10 17 29.86 1011 4 6.43736 0.02 0.508
6:54 am 06:54 Cloudy with Light Rain 62 16.7 60 15.6 93 93 NNE 13 20 29.83 1010 5 8.0467 0.02 0.508
7:05 am 07:05 Mostly Cloudy with Light Rain 62 16.7 60 15.6 93 93 NNE 17 28 29.79 1009 5 8.0467 0.001 0.001
7:25 am 07:25 Mostly Cloudy 62 16.7 59 15 90 90 N 16 26 29.82 1010 7 11.26538 0.001 0.001
7:54 am 07:54 Mostly Cloudy 63 17.2 59 15 87 87 N 14 22 29.84 1011 9 14.48406 0.001 0.001
8:01 am 08:01 Cloudy 63 17.2 59 15 87 87 N 10 17 29.84 1010 9 14.48406 0 0
8:54 am 08:54 Cloudy 61 16.1 57 13.9 87 87 N 15 24 29.87 1011 7 11.26538 0 0
9:54 am 09:54 Cloudy 62 16.7 58 14.4 86 86 N 12 19 29.88 1012 9 14.48406 0 0
10:10 am 10:10 Cloudy 62 16.7 58 14.4 86 86 N 10 17 29.88 1012 9 14.48406 0 0
10:20 am 10:20 Cloudy 62 16.7 57 13.9 84 84 N 10 17 29.88 1012 10 16.0934 0 0
10:32 am 10:32 Cloudy 62 16.7 58 14.4 86 86 N 8 13 29.89 1012 9 14.48406 0 0
10:54 am 10:54 Cloudy 62 16.7 58 14.4 86 86 NNW 7 11 29.91 1013 10 16.0934 0 0
11:54 am 11:54 Cloudy 63 17.2 59 15 87 87 NNW 13 20 29.89 1012 8 12.87472 0 0
12:54 pm 12:54 Cloudy with Mist and Fog 63 17.2 59 15 87 87 N 13 20 29.88 1012 5 8.0467 0 0
1:19 pm 13:19 Cloudy with Mist and Fog 63 17.2 60 15.6 90 90 N 12 19 29.88 1012 6 9.65604 0 0
1:52 pm 13:52 Cloudy with Mist and Fog 63 17 59 15 88 88 N 8 13 29.89 1012 4 6.43736 0 0
1:54 pm 13:54 Cloudy with Mist and Fog 63 17.2 60 15.6 90 90 N 6 9 29.89 1012 4 6.43736 0 0
2:43 pm 14:43 Cloudy with Mist and Fog 63 17.2 60 15.6 90 90 N 8 13 29.88 1012 2 3.21868 0 0
2:54 pm 14:54 Cloudy with Mist and Fog 63 17.2 60 15.6 90 90 N 10 17 29.88 1012 2.5 4.02335 0 0
3:01 pm 15:01 Cloudy with Mist and Fog 63 17.2 60 15.6 90 90 NNW 10 17 29.88 1012 3 4.82802 0 0
3:12 pm 15:12 Cloudy with Mist and Fog 64 17.8 60 15.6 87 87 N 9 15 29.87 1011 4 6.43736 0 0
3:47 pm 15:47 Cloudy 64 17.8 61 16.1 90 90 N 10 17 29.86 1011 7 11.26538 0 0
3:54 pm 15:54 Cloudy 65 18.3 61 16.1 87 87 N 9 15 29.87 1011 9 14.48406 0 0
4:06 pm 16:06 Cloudy 65 18.3 61 16.1 87 87 NNW 10 17 29.85 1011 10 16.0934 0 0
4:35 pm 16:35 Cloudy 65 18.3 61 16.1 87 87 N 12 19 29.84 1011 10 16.0934 0 0
4:47 pm 16:47 Cloudy 65 18.3 60 15.6 84 84 N 10 17 29.84 1011 10 16.0934 0 0
4:54 pm 16:54 Cloudy 65 18.3 61 16.1 87 87 N 10 17 29.86 1011 10 16.0934 0 0
5:54 pm 17:54 Cloudy 64 17.8 60 15.6 87 87 NNW 10 17 29.86 1011 10 16.0934 0 0
6:54 pm 18:54 Cloudy 63 17.2 59 15 87 87 NNW 10 17 29.87 1012 10 16.0934 0 0
7:40 pm 19:40 Cloudy 62 16.7 58 14.4 86 86 NNW 14 22 29.87 1012 10 16.0934 0 0
7:54 pm 19:54 Cloudy 62 16.7 58 14.4 86 86 NNW 15 24 29.87 1012 10 16.0934 0 0
8:32 pm 20:32 Cloudy 62 16.7 58 14.4 86 86 N 14 22 29.88 1012 10 16.0934 0 0
8:54 pm 20:54 Cloudy 62 16.7 58 14.4 86 86 NNW 9 15 29.89 1012 10 16.0934 0 0
9:02 pm 21:02 Cloudy 61 16.1 58 14.4 90 90 NNW 12 19 29.88 1012 10 16.0934 0 0
9:54 pm 21:54 Cloudy 61 16.1 58 14.4 90 90 NNW 9 15 29.9 1013 10 16.0934 0 0
10:54 pm 22:54 Cloudy 61 16.1 58 14.4 90 90 NNW 9 15 29.91 1013 10 16.0934 0 0
11:54 pm 23:54 Cloudy 61 16.1 57 13.9 87 87 NNW 10 17 29.91 1013 10 16.0934 0 0

Powered by AerisWeather